Hourly Data Report for February 04, 2006

TORONTO CITY
ONTARIO

43°40'00.000" N
79°24'00.000" W
112.50 m
6158355
71508
XTO

Download Data

Hourly Data (February 2006)
Hourly Data Report for February 4, 2006
TIME
LST
Temp Definition
°C
Dew Point Definition
°C
Rel Hum Definition
%
Precip. Amount Definition
mm

Wind Dir Definition
10's deg

Wind Spd Definition
km/h
Visibility Definition
km
Stn Press Definition
kPa
Hmdx Definition


Wind Chill Definition


Weather Definition


00:00 3.9 2.4 90   LegendMM LegendMM   99.64     LegendNANA
01:00 4.4 2.5 87   LegendMM LegendMM   99.64     LegendNANA
02:00 3.5 2.1 91   LegendMM LegendMM   99.60     LegendNANA
03:00 3.7 2.6 93   LegendMM LegendMM   99.69     LegendNANA
04:00 3.5 2.9 96   LegendMM LegendMM   99.66     LegendNANA
05:00 3.5 2.9 96   LegendMM LegendMM   99.68     LegendNANA
06:00 3.6 3.1 97   LegendMM LegendMM   99.73     LegendNANA
07:00 3.9 3.1 95   LegendMM LegendMM   99.69     LegendNANA
08:00 4.1 3.2 94   LegendMM LegendMM   99.63     LegendNANA
09:00 3.9 2.8 93   LegendMM LegendMM   99.50     LegendNANA
10:00 3.8 2.6 92   LegendMM LegendMM   99.42     LegendNANA
11:00 3.6 1.4 86   LegendMM LegendMM   99.37     LegendNANA
12:00 3.7 0.9 82   LegendMM LegendMM   99.19     LegendNANA
13:00 3.7 0.9 82   LegendMM LegendMM   99.02     LegendNANA
14:00 2.9 1.4 90   LegendMM LegendMM   98.78     LegendNANA
15:00 1.7 0.9 94   LegendMM LegendMM   98.61     LegendNANA
16:00 2.4 1.6 94   LegendMM LegendMM   98.31     LegendNANA
17:00 2.7 1.7 93   LegendMM LegendMM   98.13     LegendNANA
18:00 3.0 2.2 94   LegendMM LegendMM   97.97     LegendNANA
19:00 3.4 2.5 94   LegendMM LegendMM   97.92     LegendNANA
20:00 3.3 2.8 97   LegendMM LegendMM   97.82     LegendNANA
21:00 3.2 2.7 97   LegendMM LegendMM   97.68     LegendNANA
22:00 3.3 2.9 97   LegendMM LegendMM   97.60     LegendNANA
23:00 3.5 3.2 98   LegendMM LegendMM   97.29     LegendNANA

Notes on Data Quality.

Legend

  • E = Estimated
  • M = Missing
  • NA = Not Available*
  • [empty] = Indicates an unobserved value
Date modified: